CDT,Max TemperatureF,Mean TemperatureF,Min TemperatureF,Max Dew PointF,MeanDew PointF,Min DewpointF,Max Humidity, Mean Humidity, Min Humidity, Max Sea Level PressureIn, Mean Sea Level PressureIn, Min Sea Level PressureIn, Max VisibilityMiles, Mean VisibilityMiles, Min VisibilityMiles, Max Wind SpeedMPH, Mean Wind SpeedMPH, Max Gust SpeedMPH,PrecipitationIn, CloudCover, Events, WindDirDegrees
2013-7-1,89,77,65,60,56,53,73,52,31,29.99,29.95,29.90,10,10,10,16,6,21,0.00,1,,351
2013-7-2,91,78,64,60,54,43,78,49,19,30.05,30.02,29.98,10,10,10,14,4,21,0.00,0,,350
2013-7-3,93,78,62,61,54,46,78,50,21,30.06,30.01,29.94,10,10,10,10,4,23,0.00,2,,91
2013-7-4,92,81,70,63,59,57,70,52,34,30.02,29.98,29.94,10,10,10,15,6,18,T,0,,130
2013-7-5,95,82,68,62,59,54,73,51,28,30.02,29.96,29.89,10,10,10,16,6,21,0.00,1,,139
2013-7-6,97,84,70,71,61,55,79,53,26,29.98,29.94,29.87,10,10,10,15,7,17,0.00,0,,132
2013-7-7,99,86,73,73,68,62,84,59,33,30.04,29.98,29.93,10,10,10,24,8,31,0.01,1,,134
2013-7-8,92,83,74,72,70,67,87,69,50,30.13,30.07,30.01,10,10,10,16,8,20,0.01,3,,171
2013-7-9,99,87,75,72,66,60,87,58,29,30.15,30.08,30.00,10,10,10,15,9,20,0.00,0,,190
2013-7-10,100,89,78,71,67,60,79,54,29,30.09,30.01,29.91,10,10,10,15,8,20,0.00,0,,203
2013-7-11,98,86,73,73,70,67,85,62,39,30.01,29.96,29.91,10,10,5,30,7,39,0.30,1,Rain-Thunderstorm,177
2013-7-12,99,87,74,72,69,65,93,64,35,29.99,29.94,29.89,10,10,10,13,5,22,0.00,0,,73
2013-7-13,97,87,76,69,60,54,64,46,28,30.01,29.95,29.90,10,10,10,13,8,16,0.00,0,,79
2013-7-14,81,76,71,70,66,60,74,64,54,30.02,29.96,29.89,10,9,2,16,6,20,1.07,4,Rain-Thunderstorm,93
2013-7-15,81,76,70,72,69,67,97,83,69,30.11,30.04,29.96,10,8,1,14,5,17,1.39,5,Rain,97
2013-7-16,90,81,71,73,70,69,93,74,55,30.21,30.14,30.09,10,10,7,26,6,35,0.24,4,Rain-Thunderstorm,101
2013-7-17,91,82,73,73,71,68,93,72,50,30.26,30.20,30.13,10,10,4,14,5,17,0.06,3,Rain,106
2013-7-18,94,84,73,72,69,66,87,64,41,30.19,30.11,30.01,10,10,5,16,2,21,0.00,1,,32
2013-7-19,81,78,74,73,71,67,93,80,67,30.13,30.04,29.96,10,9,2,14,5,16,0.26,3,Rain,170
2013-7-20,91,82,72,72,70,67,93,72,50,29.99,29.94,29.88,10,10,10,20,4,24,0.00,1,Thunderstorm,192
2013-7-21,93,83,72,73,71,68,93,69,44,29.99,29.94,29.88,10,10,8,17,9,21,0.00,2,,186
2013-7-22,94,86,78,74,72,70,85,66,46,30.03,29.96,29.90,10,10,10,16,11,23,0.00,3,,202
2013-7-23,94,86,78,74,72,68,85,67,49,30.01,29.94,29.85,10,10,10,17,11,22,0.00,2,,203
2013-7-24,91,83,74,73,71,66,79,66,52,30.02,29.95,29.88,13,10,9,17,7,24,0.02,2,Rain,64
2013-7-25,94,83,72,72,70,66,87,66,44,30.06,30.01,29.97,10,10,10,10,3,13,0.00,2,,114
2013-7-26,92,85,77,73,71,68,82,65,47,30.04,29.95,29.85,10,10,10,18,9,22,0.00,2,,184
2013-7-27,87,79,71,73,68,64,93,71,48,30.02,29.96,29.91,10,9,2,14,7,17,0.01,6,Rain,20
2013-7-28,92,80,68,71,67,64,87,67,47,30.00,29.96,29.91,10,10,9,14,6,18,0.00,2,,134
2013-7-29,95,86,76,74,71,66,94,67,39,30.06,30.00,29.96,10,10,9,17,10,23,0.00,3,,171
2013-7-30,97,87,77,72,69,64,79,57,35,30.12,30.04,29.98,10,10,10,18,11,24,0.00,2,,185
2013-7-31,96,86,76,71,68,64,82,61,39,30.09,30.01,29.94,10,10,10,15,8,22,0.00,1,,187